Location: Unspecified
(0.0000°N, 0.0000°E)
Time: 04:49:28
(UTC+00:00)

S-56A Canister/Altair - All Passes

Search period start: 26 April 2015 00:00
Search period end: 06 May 2015 00:00
Orbit: 635 x 2500 km, 38.9° (Epoch: 25 April)

Date Brightness Start Highest point End Pass type
(mag) Time Alt. Az. Time Alt. Az. Time Alt. Az.
26 Apr - 05:02:48 10° S 05:06:29 17° SSE 05:09:48 10° ESE visible
26 Apr - 07:05:57 10° WSW 07:10:38 46° NW 07:14:53 10° NNE daylight
26 Apr - 15:34:49 10° N 15:41:50 19° NE 15:51:06 10° E daylight
26 Apr - 17:36:08 10° NW 17:48:39 67° NE 18:03:46 10° ESE daylight
26 Apr - 19:42:16 10° WNW 19:55:55 48° SW 20:09:39 10° SSE visible
26 Apr - 21:57:07 10° WSW 22:04:46 15° SSW 22:10:50 10° S visible
27 Apr - 04:30:42 10° S 04:34:04 15° SSE 04:37:10 10° ESE visible
27 Apr - 06:33:25 10° WSW 06:38:35 62° NW 06:42:56 10° NE daylight
27 Apr - 15:03:35 10° N 15:08:52 15° NE 15:16:01 10° ENE daylight
27 Apr - 17:03:48 10° NNW 17:15:32 59° NE 17:30:22 10° ESE daylight
27 Apr - 19:09:09 10° WNW 19:22:36 53° SW 19:36:56 10° SSE visible
27 Apr - 21:22:07 10° WSW 21:31:22 17° SSW 21:39:09 10° S visible
28 Apr - 03:58:36 10° S 04:01:35 13° SSE 04:04:25 10° ESE visible
28 Apr - 06:00:52 10° SW 06:06:30 83° NW 06:10:58 10° NE daylight
28 Apr - 14:33:16 10° NNE 14:35:56 11° NE 14:39:58 10° ENE daylight
28 Apr - 16:31:34 10° NNW 16:42:30 51° NE 16:56:48 10° ESE daylight
28 Apr - 18:36:12 10° WNW 18:49:19 60° SW 19:04:07 10° SE visible
28 Apr - 20:47:36 10° WSW 20:57:57 20° SSW 21:07:07 10° S visible
29 Apr - 03:26:31 10° S 03:29:01 12° SSE 03:31:31 10° SE visible
29 Apr - 05:28:18 10° SW 05:34:23 76° SE 05:39:00 10° NE visible
29 Apr - 15:59:30 10° NNW 16:09:32 44° NE 16:23:04 10° ESE daylight
29 Apr - 18:03:24 10° WNW 18:16:04 67° SW 18:31:09 10° SE visible
29 Apr - 20:13:28 10° W 20:24:31 23° SSW 20:34:50 10° SSE visible
30 Apr - 02:54:31 10° S 02:56:22 11° SSE 02:58:24 10° SE visible
30 Apr - 04:55:42 10° SW 05:02:13 60° SE 05:06:58 10° ENE visible
30 Apr - 07:03:49 10° WNW 07:05:48 12° NW 07:07:27 10° NNW daylight
30 Apr - 15:27:32 10° NNW 15:36:40 37° NE 15:49:12 10° ESE daylight
30 Apr - 17:30:46 10° NW 17:42:53 74° SW 17:58:04 10° SE daylight
30 Apr - 19:39:39 10° W 19:51:06 27° SSW 20:02:22 10° SSE visible
01 May - 02:22:49 10° SSE 02:23:37 10° SSE 02:24:47 10° SSE visible
01 May - 04:23:03 10° SW 04:29:57 49° SE 04:34:53 10° ENE visible
01 May - 06:30:10 10° W 06:33:36 17° NW 06:36:30 10° N daylight
01 May - 14:55:44 10° NNW 15:03:52 31° NE 15:15:09 10° E daylight
01 May - 16:58:17 10° NW 17:09:45 82° SW 17:24:53 10° SE daylight
01 May - 19:06:05 10° W 19:17:42 30° SSW 19:29:46 10° SSE visible
02 May - 03:50:22 10° SSW 03:57:37 41° SE 04:02:45 10° ENE visible
02 May - 05:56:53 10° W 06:01:27 23° NW 06:05:09 10° N daylight
02 May - 14:24:06 10° N 14:31:08 25° NE 14:40:55 10° E daylight
02 May - 16:25:54 10° NW 16:36:44 89° NE 16:51:36 10° SE daylight
02 May - 18:32:47 10° W 18:44:20 33° SW 18:57:02 10° SSE visible
02 May - 20:51:44 10° SSW 20:54:37 10° SSW 20:56:23 10° SSW visible
03 May - 03:17:38 10° SSW 03:25:12 36° SSE 03:30:34 10° E visible
03 May - 05:23:43 10° WSW 05:29:20 31° NW 05:33:37 10° NNE visible
03 May - 13:52:41 10° N 13:58:28 20° NE 14:06:26 10° E daylight
03 May - 15:53:39 10° NW 16:03:47 79° NE 16:18:13 10° SE daylight
03 May - 17:59:41 10° W 18:11:00 37° SW 18:24:11 10° SSE visible
03 May - 20:15:23 10° SW 20:21:01 12° SSW 20:25:37 10° S visible
04 May - 02:44:52 10° SSW 02:52:41 32° SSE 02:58:19 10° E visible
04 May - 04:50:36 10° WSW 04:57:12 42° NW 05:01:58 10° NNE visible
04 May - 13:21:41 10° NNE 13:25:50 15° NE 13:31:35 10° ENE daylight
04 May - 15:21:31 10° NW 15:30:57 69° NE 15:44:44 10° SE daylight
04 May - 17:26:46 10° WNW 17:37:44 41° SW 17:51:14 10° SSE daylight
04 May - 19:40:22 10° SW 19:47:27 14° SSW 19:53:42 10° S visible
05 May - 02:12:02 10° SSW 02:20:04 29° SSE 02:25:58 10° E visible
05 May - 04:17:29 10° WSW 04:25:03 55° NW 04:30:14 10° NNE visible
05 May - 12:52:00 10° NNE 12:53:15 11° NE 12:55:25 10° NE daylight
05 May - 14:49:29 10° NNW 14:58:12 59° NE 15:11:10 10° ESE daylight
05 May - 16:54:01 10° WNW 17:04:33 46° SW 17:18:11 10° SSE daylight
05 May - 19:05:57 10° WSW 19:13:54 16° SSW 19:21:23 10° S visible
